Regional Weather Roundup
Issued by NWS

Home | Current Version | Previous Version | Text Only | Print | Product List | Glossary On
Versions: 1 2 3 4 5 6 7 8 9 10 11 12 13 14 15 16 17 18 19 20 21 22 23 24 25 26 27 28 29 30 31 32 33 34 35 36 37 38 39 40 41 42 43 44 45 46 47 48 49 50
000
ASUS45 KBOU 210907
RWRCO

WEATHER ROUNDUP FOR COLORADO
NATIONAL WEATHER SERVICE DENVER/BOULDER CO
200 AM MST SUN DEC 21 2014

NOTE: "FAIR" INDICATES FEW OR NO CLOUDS BELOW 12000 FEET WITH NO
SIGNIFICANT WEATHER AND/OR OBSTRUCTIONS TO VISIBILITY.

COZ001>005-013-030-031-211000-
...NORTHWEST COLORADO...

CITY           SKY/WX    TMP DP  RH WIND       PRES   REMARKS
CRAIG          CLOUDY    22  21  96 CALM      30.02F
HAYDEN         CLOUDY    25  21  86 SE5       30.01F WCI  19
MEEKER         MIX PCPN  30  26  85 CALM      30.04F
MOUNT WERNER   NOT AVBL
STEAMBOAT SPGS CLOUDY    26  25  94 E3        30.01F
WALDEN         CLOUDY    28  21  74 SW26G33   29.92F WCI  13
$$

COZ006>008-011-211000-
...WEST CENTRAL VALLEYS...

CITY           SKY/WX    TMP DP  RH WIND       PRES   REMARKS
GRAND JUNCTION CLOUDY    33  31  92 SE3       30.12S
MONTROSE       CLOUDY    31  27  85 CALM      30.14R
EAGLE          CLOUDY    30  28  93 SW6       30.09S WCI  24
RIFLE          CLOUDY    31  28  89 SE6       30.11S WCI  25
DELTA          CLOUDY    35  29  81 CALM      30.13S
NUCLA          CLOUDY    32  28  86 CALM      30.14S
$$

COZ017>023-064>068-211000-
...SOUTHWEST COLORADO...

CITY           SKY/WX    TMP DP  RH WIND       PRES   REMARKS
DURANGO        CLOUDY    28  26  92 CALM      30.07S
CORTEZ         PTCLDY    26  24  92 CALM      30.11R
PAGOSA SPRINGS CLOUDY    27  26  96 CALM      30.07S
TELLURIDE      CLOUDY    28  24  84 CALM      30.11R
WOLF CREEK PAS SNOW      14  14 100 MISG      30.04S VSB 1/4
$$

COZ009-010-012-014-032>034-037-058>063-211000-
...CENTRAL COLORADO...

CITY           SKY/WX    TMP DP  RH WIND       PRES   REMARKS
ASPEN          LGT SNOW  24  22  91 CALM      30.06S FOG
BUENA VISTA    PTCLDY    31  15  52 NW12G25   29.95S WCI  22
COPPER MTN     CLOUDY    19  14  79 W23G35    30.00R WCI   2
BERTHOUD PASS  CLOUDY    10   5  79 MISG      29.92R
COTTONWOOD PAS CLOUDY    30  14  51 W26G46    29.94S WCI  16
GUNNISON       CLOUDY    19  16  86 CALM      30.10R
KREMMLING      CLOUDY    30  25  80 W12       30.04S WCI  21
LEADVILLE      CLOUDY    22  15  75 N12G18    30.01R WCI  10
SALIDA         PTCLDY    33  19  54 NW5       30.03R WCI  29
SUNLIGHT       CLOUDY   N/A N/A N/A CALM      30.06S
WILKERSON PASS CLEAR     18  10  73 W12G21    29.94S WCI   5
$$

COZ069>075-211000-
...SAN LUIS VALLEY/SANGRE DE CRISTO MOUNTAINS...

CITY           SKY/WX    TMP DP  RH WIND       PRES   REMARKS
ALAMOSA        PTCLDY    10   6  84 W7        30.02R WCI  -1
LA VETA PASS   PTCLDY    21  18  86 S8G25     29.94S WCI  12
SAGUACHE       CLOUDY    32  21  64 NW8G16    30.02R WCI  25
$$

COZ035-036-038>040-211000-
...NORTHERN COLORADO FRONT RANGE...

CITY           SKY/WX    TMP DP  RH WIND       PRES   REMARKS
DENVER INTL AP PTCLDY    25  19  78 S6        29.86S WCI  18
DMNS CITY PARK   N/A     30  21  69 S3G9      29.86F
AURORA         NOT AVBL
FRONT RANGE AP CLEAR     28  23  80 S7        29.87S WCI  21
ERIE MUNI ARPT   N/A     23  20  86 CALM      29.86F
BOULDER MUN AP PTCLDY    32  21  64 CALM      29.85F
CENTENNIAL     PTCLDY    30  19  63 S9        29.87S WCI  22
BROOMFIELD     PTCLDY    36  19  51 W3        29.86F
FORT COLLINS   CLEAR     25  16  68 CALM      29.86F
LONGMONT       CLEAR     25  19  78 W3        29.88F
$$

COZ041-046-047-076>085-087-088-211000-
...PIKES PEAK/PALMER DIVIDE AND SOUTHERN FOOTHILLS...

CITY           SKY/WX    TMP DP  RH WIND       PRES   REMARKS
COLO. SPRINGS  PTCLDY    25  17  72 NE9       29.89S WCI  15
A. F. ACADEMY  CLEAR     26  15  62 N8        29.88S WCI  18
ELLICOTT       NOT AVBL
FALCON         CLEAR     29  17  59 W10       29.90R WCI  20
FORT CARSON    CLEAR     26  18  70 NW3       29.87S
LIMON          CLEAR     26  20  77 NW6       29.87S WCI  19
MONUMENT HILL  CLEAR     25  16  68 SW7       29.88R WCI  17
TRINIDAD       PTCLDY    30  17  58 W12       29.89F WCI  20
$$

COZ042>045-048>051-090-091-211000-
...NORTHEAST COLORADO...

CITY           SKY/WX    TMP DP  RH WIND       PRES   REMARKS
GREELEY ARPT   CLEAR     19   9  63 W5        29.85F WCI  13
AKRON          PTCLDY    26  21  81 W15       29.84F WCI  14
BURLINGTON     PTCLDY    30  26  85 SW7       29.86F WCI  23
WRAY           CLOUDY    32  28  86 CALM      29.84F
STERLING       PTCLDY    27  23  86 S5        29.86F WCI  21
HOLYOKE        CLOUDY    36  30  80 SW3       29.85S
FORT MORGAN    PTCLDY    18  14  85 W7        29.87S WCI   8
$$

COZ086-089-092>099-211000-
...SOUTHEAST COLORADO...

CITY           SKY/WX    TMP DP  RH WIND       PRES   REMARKS
PUEBLO         CLEAR     23  15  71 W7        29.88F WCI  15
LA JUNTA       CLEAR     28  24  85 W8        29.87F WCI  20
LAMAR          PTCLDY    21  19  92 SW5       29.87F WCI  15
SPRINGFIELD      N/A     33  27  78 W6        29.84F WCI  28
$$


USA.gov is the U.S. government's official web portal to all federal, state and local government web resources and services.